Regional Weather Roundup
Issued by NWS San Angelo, TX

Home | Current Version | Previous Version | Text Only | Print | Product List | Glossary On
Versions: 1 2 3 4 5 6 7 8 9 10 11 12 13 14 15 16 17 18 19 20 21 22 23 24 25 26 27 28 29 30 31 32 33 34 35 36 37 38 39 40 41 42 43 44 45 46 47 48 49 50
000
ASUS44 KSJT 231210
RWRSJT
WEST CENTRAL TEXAS REGIONAL WEATHER ROUNDUP
NATIONAL WEATHER SERVICE SAN ANGELO TX
700 AM CDT WED AUG 23 2017

NOTE: "FAIR" INDICATES FEW OR NO CLOUDS BELOW 12,000 FEET WITH NO
SIGNIFICANT WEATHER AND/OR OBSTRUCTIONS TO VISIBILITY.

TXZ049-054-064>066-071>073-076>078-098-099-113-114-127-128-139-140-
154-155-168>170-231300
...LOCATIONS ACROSS WEST CENTRAL TEXAS...

CITY           SKY/WX    TMP DP  RH WIND       PRES   REMARKS
SAN ANGELO     LGT RAIN  72  68  87 N7        30.08R
ABILENE        CLOUDY    72  71  97 N6        30.09R
DYESS AFB      CLOUDY    73  71  94 N6        30.08R
JUNCTION       CLOUDY    74  66  76 CALM      30.06R
SWEETWATER     CLOUDY    69  69 100 NE6       30.14R
BROWNWOOD      CLOUDY    75  68  78 N5        30.05S
COLEMAN        CLOUDY    74  67  80 N7        30.07S
SONORA         CLOUDY    73  68  83 CALM      30.11S
OZONA            N/A     70  68  94 N5        30.10R
BRADY          NOT AVBL
$$

TEXAS PANHANDLE/OKLAHOMA PANHANDLE

CITY           SKY/WX    TMP DP  RH WIND       PRES   REMARKS
AMARILLO       CLOUDY    66  66 100 E8        30.21R
BORGER         CLOUDY    66  65  96 E8        30.20R
CANADIAN       MOCLDY    68  67  96 CALM      30.17S
DALHART        CLOUDY    66  65  96 E6        30.25R FOG
DUMAS          CLOUDY    64  63  96 E5        30.22S
GUYMON         NOT AVBL
HEREFORD       CLOUDY    65  64  97 N3        30.22S
PAMPA          FOG       68  66  94 E9        30.21S VSB 1/2
PERRYTON       CLOUDY    69  67  93 E8        30.19S
$$

SOUTHERN PANHANDLE/SOUTH PLAINS/ROLLING PLAINS

CITY           SKY/WX    TMP DP  RH WIND       PRES   REMARKS
LUBBOCK        MOCLDY    66  63  90 N7        30.16R
SNYDER         CLOUDY    68  67  98 NE6       30.14R
CHILDRESS      CLOUDY    68  67  96 NE5       30.13S FOG
SEMINOLE       PTSUNNY   67  64  90 N7        30.17R
$$

PERMIAN BASIN

CITY           SKY/WX    TMP DP  RH WIND       PRES   REMARKS
MIDLAND        MOCLDY    70  66  87 N10       30.12R
ODESSA         MOCLDY    68  66  93 NE9       30.13R
WINK           PTCLDY    68  66  93 N9        30.11R
$$

FAR WEST/SOUTHWEST MOUNTAINS/TRANS PECOS

CITY           SKY/WX    TMP DP  RH WIND       PRES   REMARKS
ALPINE         SUNNY     62  59  88 SW6       30.24S
DRYDEN           N/A     75  65  70 N8        30.03S
EL PASO        MOCLDY    75  63  66 NE9       30.14R
FORT STOCKTON  PTCLDY    70  63  78 NE5       30.10R
GUADALUPE PASS LGT RAIN  62  62 100 NE25      30.26R VSB 1/4
MARFA          CLOUDY    61  59  93 N6        30.22F
PECOS          MOSUNNY   71  65  83 N8        30.10S
$$

DALLAS/FORT WORTH METROPLEX

CITY           SKY/WX    TMP DP  RH WIND       PRES   REMARKS
DFW AIRPORT    CLOUDY    76  72  87 N3        30.01F
FTW MEACHAM    LGT RAIN  75  74  96 NE6       30.03S
DAL-EXECUTIVE  CLOUDY    78  70  76 NE6       30.02S
GRAND PRAIRIE  PTCLDY    77  66  69 N9        30.04S
ADDISON        CLEAR     75  70  83 NE7       30.03S
MESQUITE         N/A     88  70  55 NE6       30.02S
LANCASTER      PTSUNNY   77  68  74 CALM      30.03S
$$

NORTH CENTRAL TEXAS

CITY           SKY/WX    TMP DP  RH WIND       PRES   REMARKS
SHRMAN/DENISON LGT RAIN  71  70  98 E10       30.05S
GAINESVILLE    MOCLDY    72  70  96 CALM      30.06R
BRIDGEPORT     CLOUDY    72  72 100 SE5       30.04S THUNDER
DENTON         LGT RAIN  73  73 100 E6        30.02F
WAXAHACHIE     CLOUDY    76  71  83 N5        30.04R
GRANBURY       CLOUDY    75  70  83 NE5       30.04S
$$

WESTERN NORTH TEXAS

CITY           SKY/WX    TMP DP  RH WIND       PRES   REMARKS
WICHITA FALLS  CLOUDY    72  70  93 NE10      30.06R
VERNON         CLOUDY    69  66  89 N5        30.10R
BRECKENRIDGE   CLOUDY    75  72  91 CALM      30.05S
COMANCHE       PTCLDY    73  73 100 E3        30.05S
$$

CENTRAL AND SOUTH CENTRAL TEXAS

CITY           SKY/WX    TMP DP  RH WIND       PRES   REMARKS
AUSTIN/BERGSTM PTCLDY    72  70  93 S3        30.00R
WACO           MOCLDY    74  70  87 CALM      30.00S
HILLSBORO      CLOUDY    78  72  82 NE10      30.02S
TEMPLE         CLOUDY    77  70  79 CALM      30.01S
KILLEEN-GRAY   CLOUDY    75  68  79 S5        30.01R
FORT HOOD      PTCLDY    76  68  77 CALM      29.98S
GEORGETOWN     CLOUDY    76  70  82 W3        30.02S
LAGO VISTA     FAIR      77  70  78 W7        30.03S
SAN MARCOS     PTCLDY    71  67  87 CALM      30.02R
NEW BRAUNFELS  CLEAR     71  69  93 N3        30.00R
RANDOLPH AFB   CLEAR     73  73 100 CALM      30.01R
SAN ANTONIO    PTCLDY    76  70  82 CALM      30.02R
STINSON        CLEAR     75  71  87 CALM      29.99R
PLEASANTON     NOT AVBL
LA GRANGE      CLEAR     74  73  95 CALM      29.99R
GIDDINGS       SUNNY     71  69  94 CALM      30.01R
$$

EAST TEXAS

CITY           SKY/WX    TMP DP  RH WIND       PRES   REMARKS
PARIS          CLOUDY    72  71  97 NE7       30.07F
CLARKSVILLE    NOT AVBL
TYLER          PTCLDY    76  74  93 CALM      30.01S
LONGVIEW       MOCLDY    75  74  96 CALM      30.00R
PALESTINE      CLOUDY    74  71  91 CALM      30.02R
NACOGDOCHES    CLEAR     72  71  97 CALM      30.01S
$$

TEXAS HILL COUNTRY AND EDWARDS PLATEAU

CITY           SKY/WX    TMP DP  RH WIND       PRES   REMARKS
LLANO          MOSUNNY   73  68  83 CALM      30.05F
HORSESHOE BAY  FAIR      73  67  83 CALM      30.03S
KERRVILLE      PTCLDY    72  69  91 CALM      30.05S
FREDERICKSBRG  CLOUDY    69  65  86 CALM      30.06R
ROCKSPRINGS    NOT AVBL
HONDO          CLEAR     71  67  87 NE5       30.01S
UVALDE         MOSUNNY   71  67  86 CALM      30.01R
DEL RIO        CLEAR     78  67  68 E8        29.97S
$$

SOUTHEAST TEXAS

CITY           SKY/WX    TMP DP  RH WIND       PRES   REMARKS
COLLEGE STN    PTCLDY    76  71  85 CALM      30.00R
CALDWELL       NOT AVBL
CROCKETT       PTSUNNY   72  70  94 CALM      30.04R
BRENHAM        PTCLDY    74  72  95 CALM      30.01R
HUNTSVILLE     CLOUDY    77  71  82 CALM      30.01R
CONROE         PTCLDY    72  71  97 CALM      30.01R
HOUSTON BUSH   CLOUDY    77  74  90 NW3       29.99R
HOUSTON HOBBY  CLOUDY    82  74  76 CALM      29.97S
PERLAND        MOCLDY    80  74  81 CALM      29.99R
WHARTON        SUNNY     71  70  95 NW3       30.00R
$$

THE UPPER TEXAS COAST

CITY           SKY/WX    TMP DP  RH WIND       PRES   REMARKS
ORANGE         CLOUDY    77  77 100 CALM      30.01R
PORT ARTHUR    PTCLDY    79  77  94 NE5       29.99R
GALVESTON      CLOUDY    82  79  90 N3        29.98R
ANGLETON       CLOUDY    74  74 100 CALM      29.98R
BAY CITY       SUNNY     73  73  99 N3        29.98R
$$

TEXAS COASTAL BEND, RIO GRANDE PLAINS DEEP SOUTH TEXAS

CITY           SKY/WX    TMP DP  RH WIND       PRES   REMARKS
VICTORIA       MOCLDY    73  71  93 N3        29.99R
BEEVILLE       FAIR     N/A N/A N/A CALM      29.98S HAZE
ROCKPORT       CLEAR     77  74  90 SW3       29.96R
PORT ARANSAS   PTSUNNY   80  75  83 CALM      29.97R
PORT LAVACA    SUNNY     74  71  91 CALM      29.98S
CORPUS CHRISTI PTCLDY    75  74  96 CALM      29.96R
KINGSVILLE NAS PTCLDY    74  74 100 N5        29.97R
COTULLA        CLEAR     75  70  84 E3        29.98R
LAREDO         CLEAR     77  72  84 SE7       29.98R
BROWNSVILLE    PTCLDY    77  77 100 N3        29.94S
PORT ISABEL    CLEAR     77  75  93 NW5       29.94S
HEBBRONVILLE   SUNNY     70  68  93 CALM      29.99S
MCALLEN        CLEAR     81  75  82 NE5       29.95S
WESLACO        CLEAR     74  72  91 CALM      29.94S
FALFURRIAS     SUNNY     73  72  96 CALM      29.96S
EDINBURG       SUNNY     76  72  87 CALM      29.95F
$$




USA.gov is the U.S. government's official web portal to all federal, state and local government web resources and services.